Location: México DF
(19.4326°N, 99.1332°W)
Time: 13:04:16
(UTC+00:00)

ISS - Pass Details

Date: 11 July 2025
Orbit: 415 x 418 km, 51.6° (Epoch: 17 July)

Event Time Altitude Azimuth Distance (km) Brightness Sun altitude
Exits shadow 11:01:10 - 309° (NW) 2,038 -0.5 -14.4°
Reaches altitude 10° 11:02:34 10° 302° (WNW) 1,483 -1.2 -14.1°
Maximum altitude 11:05:40 36° 234° (SW) 668 -3.3 -13.4°
Drops below altitude 10° 11:08:46 10° 165° (SSE) 1,481 -1.1 -12.8°
Sets 11:10:57 0° 156° (SSE) 2,342 0.0 -12.4°
